Voltar ao catálogo

STARLINK-37007

AtivoComunicaçõesSSO
NORAD 68302·PAYLOAD·🇺🇸 United States

Lançado Mar 20, 2026 de Vandenberg Space Force Base

Loading…

Próximas Passagens (próximas 24 horas)

TLE

AtualizadoSource: CelesTrak SupGP

Época: Sep 15, 2026, 02:55 UTC

1 68302C 26057J   26258.12201389 -.00000086  00000+0 -26721-5 0  2584
2 68302  97.2859  23.5909 0001180  94.8309  96.5794 15.33445795    19

Acompanhe STARLINK-37007 em tempo real com AllMySat

Download on the App Store